< < Back
Terminal Aerodrome Forecast


Current Version              Previous Versions:   1  2  3  4  5  6  7  8  9  

Terminal Aerodrome Forecast

294
FTUS42 KTAE 241300 AAA
TAFTLH
TAF AMD
KTLH 241301Z 2413/2512 33004KT P6SM FEW040 SCT070
     FM241800 18007KT P6SM SCT040
     FM250800 00000KT 1SM BR BKN005=



Latest METAR

469
SAUS80 KWBC 250900
MTRTLH
METAR KTLH 250853Z AUTO 25006KT 9SM OVC006 21/18 A2996 RMK AO2 SLP143
T02060178 51007 $


USA.gov is the U.S. government's official web portal to all federal, state and local government web resources and services.